Tracking 27380 objects as of 5-Jun-2023
HD Live streaming from Space Station
objects crossing your sky now

ONEWEB-0425

Track ONEWEB-0425 now!
10-day predictions
ONEWEB-0425 is classified as:


NORAD ID: 51628
Int'l Code: 2022-012G
Perigee: 1,226.9 km
Apogee: 1,230.8 km
Inclination: 87.9 °
Period: 109.9 minutes
Semi major axis: 7599 km
RCS: Unknown
Launch date: February 10, 2022
Source: United Kingdom (UK)
Launch site: FRENCH GUIANA (FRGUI)
Your satellite tracking list
Your tracking list is empty




NASA's NSSDC Master Catalog

Two Line Element Set (TLE):
1 51628U 22012G   23155.70196123 -.00000426  00000-0 -12577-2 0  9992
2 51628  87.8838 256.4229 0002611 106.1673 253.9742 13.10375059 64152
Source of the keplerian elements: AFSPC